Weather History for La Crosse, WI

Change the Weather History Date:

Friday, March 29, 2013

  Actual Average Record
Temperature  
Mean Temperature 36 °F 40 °F  
Max Temperature 50 °F 51 °F 84 °F (1986)
Min Temperature 22 °F 31 °F 1 °F (1969)
Degree Days  
Heating Degree Days 29 25  
Month to date heating degree days 1143 897  
Since 1 July heating degree days 6472 6406  
Cooling Degree Days 0 0  
Month to date cooling degree days 0 0  
Year to date cooling degree days 0 0  
Moisture  
Dew Point 24 °F    
Average Humidity 62    
Maximum Humidity 88    
Minimum Humidity 36    
Precipitation  
Precipitation 0.00 in 0.08 in 1.23 in (1924)
Month to date precipitation 1.81 1.87  
Year to date precipitation 4.21 4.04  
Snow  
Snow 0.00 in 0.10 in 7.50 in (1924)
Month to date snowfall 15.6 6.8  
Since 1 July snowfall 55.6 41.3  
Snow Depth 2.00 in    
Sea Level Pressure  
Sea Level Pressure 30.29 in    
Wind  
Wind Speed 3 mph (SSE)    
Max Wind Speed 10 mph    
Max Gust Speed 12 mph    
Visibility 10 miles    
Events      
T = Trace of Precipitation, MM = Missing Value Source: NWS Daily Summary

Daily Weather History Graph

Daily Weather History Graph

Search for Another Location

Airport:

Trip Planner

Search our weather history database for the weather conditions in past years. The results will help you decide how hot, cold, wet, or windy it might be!

Date:

Astronomy

Mar. 29, 2013 Rise Set
Actual Time 6:51 AM CDT 7:28 PM CDT
Civil Twilight 6:22 AM CDT 7:57 PM CDT
Nautical Twilight 5:48 AM CDT 8:32 PM CDT
Astronomical Twilight 5:12 AM CDT 9:07 PM CDT
Moon 10:36 PM CDT (3/29) 7:54 AM CDT (3/29)
Length of Visible Light 13h 35m
Length of Day
12h 37m
Waning Gibbous, 93% of the Moon is Illuminated
Mar 29
Waning Gibbous
Apr 2
Last Quarter
Apr 10
New
Apr 18
First Quarter
Apr 25
Full

Hourly Weather History & Observations

Time (CDT) Temp. Windchill Dew Point Humidity Pressure Visibility Wind Dir Wind Speed Gust Speed Precip Events Conditions
12:53 AM 28.0 °F - 23.0 °F 81% 30.34 in 10.0 mi Calm Calm - N/A   Clear
1:53 AM 28.9 °F - 23.0 °F 78% 30.34 in 10.0 mi Calm Calm - N/A   Clear
2:53 AM 28.0 °F - 21.9 °F 78% 30.34 in 10.0 mi Calm Calm - N/A   Clear
3:53 AM 27.0 °F - 21.9 °F 81% 30.34 in 10.0 mi Calm Calm - N/A   Clear
4:53 AM 25.0 °F - 21.0 °F 85% 30.33 in 10.0 mi Calm Calm - N/A   Clear
5:53 AM 24.1 °F - 19.9 °F 84% 30.34 in 10.0 mi Calm Calm - N/A   Clear
6:53 AM 24.1 °F - 19.9 °F 84% 30.35 in 8.0 mi Calm Calm - N/A   Clear
7:53 AM 26.1 °F - 21.9 °F 84% 30.36 in 7.0 mi Calm Calm - N/A   Clear
8:53 AM 28.9 °F - 24.1 °F 82% 30.37 in 8.0 mi Calm Calm - N/A   Partly Cloudy
9:53 AM 34.0 °F - 25.0 °F 70% 30.36 in 10.0 mi Calm Calm - N/A   Overcast
10:53 AM 37.9 °F - 25.0 °F 60% 30.35 in 10.0 mi Calm Calm - N/A   Clear
11:53 AM 43.0 °F 41.3 °F 25.0 °F 49% 30.34 in 10.0 mi Variable 3.5 mph - N/A   Clear
12:53 PM 46.0 °F 43.9 °F 23.0 °F 40% 30.32 in 10.0 mi SSW 4.6 mph - N/A   Clear
1:53 PM 48.0 °F - 23.0 °F 37% 30.29 in 10.0 mi SSW 8.1 mph - N/A   Clear
2:53 PM 48.0 °F - 23.0 °F 37% 30.28 in 10.0 mi South 5.8 mph - N/A   Mostly Cloudy
3:53 PM 48.0 °F - 24.1 °F 39% 30.26 in 10.0 mi South 5.8 mph - N/A   Overcast
4:53 PM 48.9 °F - 26.1 °F 41% 30.25 in 10.0 mi South 4.6 mph - N/A   Clear
5:53 PM 48.9 °F - 27.0 °F 43% 30.24 in 10.0 mi South 5.8 mph - N/A   Clear
6:53 PM 46.9 °F - 26.1 °F 44% 30.23 in 10.0 mi South 5.8 mph - N/A   Clear
7:53 PM 44.1 °F - 26.1 °F 49% 30.22 in 10.0 mi Calm Calm - N/A   Clear
8:53 PM 42.1 °F 40.2 °F 26.1 °F 53% 30.22 in 10.0 mi ESE 3.5 mph - N/A   Mostly Cloudy
9:53 PM 41.0 °F 38.0 °F 26.1 °F 55% 30.21 in 10.0 mi SE 4.6 mph - N/A   Overcast
10:53 PM 37.9 °F 33.5 °F 27.0 °F 65% 30.20 in 10.0 mi SE 5.8 mph - N/A   Mostly Cloudy
11:53 PM 37.9 °F 33.5 °F 28.0 °F 68% 30.18 in 10.0 mi SE 5.8 mph - N/A   Overcast